Regional Weather Roundup
Issued by NWS

Home | Current Version | Previous Version | Text Only | Print | Product List | Glossary On
Versions: 1 2 3 4 5 6 7 8 9 10 11 12 13 14 15 16 17 18 19 20 21 22 23 24 25 26 27 28 29 30 31 32 33 34 35 36 37 38 39 40 41 42 43 44 45 46 47 48 49 50
000
ASUS42 KKEY 290410
RWRKEY

FLORIDA REGIONAL WEATHER ROUNDUP FOR THE FLORIDA KEYS
NATIONAL WEATHER SERVICE KEY WEST FLORIDA
1200 AM EDT SAT APR 29 2017

...SOUTH FLORIDA AND THE KEYS...

CITY           SKY/WX    TMP DP  RH WIND       PRES   REMARKS
FORT MYERS     CLEAR     78  72  81 E10       30.08R
SW REGIONAL AP PTCLDY    76  70  82 E9        30.08S
NAPLES         PTCLDY    78  72  81 E12       30.07S
MIAMI          PTCLDY    81  72  74 E20G29    30.10S
WEST KENDALL   PTCLDY    80  71  74 E16G24    30.09F
HOMESTEAD      PTCLDY    80  76  87 E16G23    30.08F
MARATHON       PTCLDY    81  76  84 SE14G21   30.07S
BOCA CHICA NAS PTCLDY   N/A N/A N/A E17G26    30.05F
KEY WEST INTL  PTCLDY    80  75  84 SE18      30.06S

...INTERNATIONAL WEATHER...

CITY           SKY/WX    TMP DP  RH WIND       PRES   REMARKS
NASSAU BAHAMAS PTCLDY    81  66  61 E14       30.16S
CANCUN MEXICO  MOCLDY    82  79  89 E20       29.93R HX  93
COZUMEL MEXICO MOCLDY    82  77  83 SE17      29.89S HX  91

ADJACENT COASTAL WATERS...

STATION/POSITION TIME  SKY/WX   TEMP    WIND        PRES    WAVE
                                AIR SEA DIR/SP/G            HT/PER
                 (UTC)          (F)     (DEG/KT/KT) (MB)    (FT/S)
PULASKI SHOAL LI 0400            79     120/ 20/ 23 1017.2R
SAND KEY         0350            79     130/ 21/ 24 1018.0S
LONG KEY         0300            80 83  110/ 16/ 18 1018.7R
MOLASSES REEF    0300            80 79  120/ 12/ 13 1019.0R
FOWEY ROCKS      0300            80 78   90/ 23/ 25 1019.7S
Buoy 42097       0330                                 N/A     5/ 5

$$



USA.gov is the U.S. government's official web portal to all federal, state and local government web resources and services.